| time (UTC) | temp F | wind direction | speed knots | gust knots | rain 1hr in | rain 24hr in | rain mn in | humidity % | barometer mb |
| 20260505151600 | 53 | 276 | 0.0 | 2.6 | 0.00 | 0.30 | 0.14 | 92 | 997.6 |
| 20260505150549 | 53 | 275 | 0.9 | 5.2 | 0.00 | 0.30 | 0.14 | 92 | 997.6 |
| 20260505140437 | 52 | 205 | 0.0 | 0.9 | 0.00 | 0.30 | 0.14 | 92 | 997.2 |
| 20260505124307 | 52 | 201 | 0.9 | 3.5 | 0.00 | 0.30 | 0.14 | 91 | 996.9 |
| 20260505123803 | 52 | 201 | 0.0 | 3.5 | 0.00 | 0.30 | 0.14 | 91 | 996.9 |
| 20260505123303 | 52 | 203 | 0.0 | 1.7 | 0.00 | 0.30 | 0.14 | 91 | 996.9 |
| 20260505122800 | 52 | 203 | 0.9 | 1.7 | 0.00 | 0.30 | 0.14 | 91 | 997.0 |
| 20260505122302 | 52 | 185 | 0.0 | 2.6 | 0.00 | 0.30 | 0.14 | 91 | 996.9 |
| 20260505121800 | 52 | 185 | 0.0 | 2.6 | 0.00 | 0.30 | 0.14 | 91 | 997.0 |
| 20260505121258 | 52 | 184 | 0.0 | 1.7 | 0.00 | 0.30 | 0.14 | 91 | 997.0 |
| 20260505120757 | 52 | 184 | 0.0 | 2.6 | 0.00 | 0.30 | 0.14 | 91 | 997.0 |
| 20260505115753 | 52 | 186 | 0.0 | 1.7 | 0.00 | 0.30 | 0.14 | 91 | 996.9 |
| 20260505115253 | 52 | 186 | 0.0 | 3.5 | 0.00 | 0.30 | 0.14 | 91 | 996.9 |
| 20260505114252 | 52 | 185 | 0.9 | 2.6 | 0.00 | 0.30 | 0.14 | 91 | 996.8 |
| 20260505113751 | 52 | 184 | 0.9 | 2.6 | 0.00 | 0.30 | 0.14 | 91 | 996.9 |
| 20260505113253 | 52 | 185 | 0.9 | 3.5 | 0.00 | 0.30 | 0.14 | 91 | 996.8 |
| 20260505112752 | 52 | 173 | 0.9 | 4.3 | 0.00 | 0.30 | 0.14 | 91 | 996.8 |
| 20260505112251 | 52 | 163 | 1.7 | 6.1 | 0.00 | 0.30 | 0.14 | 91 | 996.9 |
| 20260505111251 | 52 | 153 | 0.9 | 2.6 | 0.00 | 0.30 | 0.14 | 91 | 997.0 |
| 20260505110239 | 52 | 165 | 0.0 | 1.7 | 0.00 | 0.30 | 0.14 | 91 | 997.1 |
| 20260505102150 | 51 | 163 | 0.0 | 1.7 | 0.01 | 0.30 | 0.14 | 90 | 997.2 |
| 20260505101645 | 51 | 163 | 0.0 | 1.7 | 0.01 | 0.30 | 0.14 | 90 | 997.1 |
| 20260505100645 | 51 | 150 | 0.9 | 4.3 | 0.02 | 0.30 | 0.14 | 90 | 996.9 |
| 20260505100144 | 51 | 148 | 1.7 | 4.3 | 0.02 | 0.30 | 0.14 | 90 | 996.9 |
| 20260505095641 | 51 | 163 | 0.9 | 4.3 | 0.02 | 0.30 | 0.14 | 90 | 997.0 |
| 20260505095141 | 52 | 180 | 0.9 | 1.7 | 0.03 | 0.30 | 0.14 | 90 | 997.1 |
| 20260505094141 | 52 | 178 | 0.9 | 4.3 | 0.04 | 0.30 | 0.14 | 90 | 997.1 |
| 20260505093140 | 52 | 175 | 0.9 | 2.6 | 0.04 | 0.30 | 0.14 | 90 | 997.2 |
| 20260505092640 | 52 | 175 | 0.9 | 2.6 | 0.04 | 0.30 | 0.14 | 90 | 997.4 |
| 20260505091638 | 52 | 194 | 0.9 | 3.5 | 0.03 | 0.29 | 0.13 | 90 | 997.4 |
| 20260505091137 | 52 | 194 | 1.7 | 5.2 | 0.03 | 0.29 | 0.13 | 90 | 997.4 |
| 20260505090638 | 52 | 168 | 0.9 | 5.2 | 0.03 | 0.28 | 0.12 | 90 | 997.4 |
| 20260505090137 | 52 | 193 | 0.0 | 3.5 | 0.03 | 0.28 | 0.12 | 90 | 997.4 |
| 20260505085639 | 52 | 178 | 0.0 | 1.7 | 0.04 | 0.28 | 0.12 | 89 | 997.6 |
| 20260505084635 | 52 | 255 | 0.0 | 0.0 | 0.05 | 0.27 | 0.11 | 89 | 997.7 |
| 20260505084134 | 52 | 292 | 0.0 | 0.0 | 0.06 | 0.26 | 0.10 | 89 | 997.6 |
| 20260505083635 | 52 | 292 | 0.0 | 0.0 | 0.07 | 0.26 | 0.10 | 89 | 997.7 |
| 20260505083134 | 52 | 292 | 0.0 | 0.0 | 0.08 | 0.26 | 0.10 | 89 | 997.7 |
| 20260505082634 | 52 | 292 | 0.0 | 0.0 | 0.08 | 0.26 | 0.10 | 89 | 997.7 |
| 20260505082135 | 52 | 292 | 0.0 | 0.0 | 0.08 | 0.26 | 0.10 | 89 | 997.7 |
| 20260505081635 | 52 | 292 | 0.0 | 0.0 | 0.09 | 0.26 | 0.10 | 89 | 997.6 |
| 20260505081135 | 52 | 292 | 0.0 | 0.0 | 0.09 | 0.26 | 0.10 | 89 | 997.6 |
| 20260505080631 | 52 | 294 | 0.0 | 0.0 | 0.09 | 0.25 | 0.09 | 89 | 997.8 |
| 20260505080131 | 52 | 294 | 0.0 | 0.0 | 0.09 | 0.25 | 0.09 | 89 | 997.8 |
| 20260505075629 | 52 | 294 | 0.0 | 0.0 | 0.08 | 0.24 | 0.08 | 89 | 997.7 |
| 20260505075131 | 52 | 298 | 0.0 | 0.0 | 0.07 | 0.23 | 0.07 | 89 | 997.8 |
| 20260505074630 | 52 | 299 | 0.0 | 0.0 | 0.06 | 0.22 | 0.06 | 89 | 997.8 |
| 20260505074130 | 52 | 299 | 0.0 | 0.0 | 0.05 | 0.20 | 0.05 | 89 | 997.9 |
| 20260505073131 | 52 | 306 | 0.0 | 0.9 | 0.03 | 0.18 | 0.02 | 89 | 997.6 |
| 20260505072129 | 52 | 308 | 0.0 | 0.9 | 0.03 | 0.18 | 0.02 | 89 | 997.8 |
| 20260505071630 | 52 | 310 | 0.0 | 0.9 | 0.03 | 0.17 | 0.01 | 88 | 997.9 |
| 20260505070130 | 52 | 348 | 0.0 | 0.9 | 0.03 | 0.16 | 0.00 | 88 | 998.1 |
| 20260505065630 | 52 | 348 | 0.0 | 1.7 | 0.04 | 0.16 | 0.16 | 88 | 998.0 |
| 20260505065130 | 51 | 348 | 0.9 | 2.6 | 0.05 | 0.16 | 0.16 | 88 | 998.0 |
| 20260505064630 | 51 | 350 | 0.9 | 2.6 | 0.06 | 0.16 | 0.16 | 88 | 997.9 |
| 20260505063624 | 51 | 355 | 0.0 | 2.6 | 0.06 | 0.15 | 0.15 | 88 | 997.7 |
| 20260505063117 | 52 | 0 | 0.0 | 1.7 | 0.07 | 0.15 | 0.15 | 88 | 997.8 |
| 20260505062612 | 52 | 5 | 0.0 | 0.0 | 0.07 | 0.15 | 0.15 | 87 | 997.6 |
| 20260505062106 | 52 | 5 | 0.0 | 0.9 | 0.08 | 0.15 | 0.15 | 87 | 997.6 |
| 20260505061600 | 52 | 5 | 0.0 | 0.9 | 0.07 | 0.14 | 0.15 | 87 | 997.6 |
| 20260505061057 | 52 | 5 | 0.0 | 0.9 | 0.08 | 0.14 | 0.14 | 87 | 997.6 |
| 20260505060557 | 52 | 5 | 0.0 | 0.9 | 0.08 | 0.14 | 0.14 | 87 | 997.6 |
| 20260505060056 | 52 | 5 | 0.0 | 0.9 | 0.08 | 0.13 | 0.13 | 87 | 997.7 |
| 20260505055553 | 52 | 5 | 0.0 | 1.7 | 0.07 | 0.12 | 0.12 | 87 | 997.8 |
| 20260505055054 | 52 | 5 | 0.0 | 1.7 | 0.06 | 0.11 | 0.11 | 87 | 997.9 |
| 20260505054053 | 52 | 337 | 0.0 | 1.7 | 0.05 | 0.09 | 0.10 | 87 | 997.9 |
| 20260505053553 | 53 | 315 | 0.0 | 1.7 | 0.06 | 0.09 | 0.09 | 87 | 997.9 |
| 20260505053051 | 53 | 298 | 0.0 | 1.7 | 0.06 | 0.08 | 0.08 | 87 | 997.8 |
| 20260505052550 | 53 | 0 | 0.0 | 0.9 | 0.05 | 0.07 | 0.08 | 87 | 997.7 |
| 20260505051548 | 53 | 0 | 0.0 | 0.9 | 0.06 | 0.07 | 0.07 | 87 | 997.6 |
| 20260505051045 | 53 | 0 | 0.0 | 0.9 | 0.05 | 0.06 | 0.06 | 86 | 997.7 |
| 20260505050546 | 53 | 0 | 0.0 | 0.9 | 0.06 | 0.06 | 0.06 | 86 | 997.8 |
| 20260505041522 | 54 | 338 | 0.0 | 0.9 | 0.01 | 0.01 | 0.01 | 85 | 998.3 |
| 20260505041008 | 54 | 338 | 0.9 | 2.6 | 0.01 | 0.01 | 0.01 | 85 | 998.2 |
| 20260505040502 | 54 | 338 | 0.9 | 2.6 | 0.00 | 0.00 | 0.00 | 85 | 998.1 |
| 20260505035955 | 54 | 345 | 0.0 | 3.5 | 0.00 | 0.00 | 0.00 | 85 | 998.0 |
| 20260505035450 | 54 | 330 | 0.0 | 3.5 | 0.00 | 0.00 | 0.00 | 85 | 997.9 |
| 20260505034944 | 54 | 350 | 0.0 | 1.7 | 0.00 | 0.00 | 0.00 | 85 | 997.7 |
| 20260505034438 | 54 | 350 | 0.0 | 2.6 | 0.00 | 0.00 | 0.00 | 85 | 997.7 |
| 20260505033426 | 54 | 327 | 0.9 | 3.5 | 0.00 | 0.00 | 0.00 | 84 | 997.3 |
| 20260505032920 | 55 | 333 | 0.0 | 2.6 | 0.00 | 0.00 | 0.00 | 84 | 997.2 |
| 20260505032414 | 55 | 331 | 0.0 | 2.6 | 0.00 | 0.00 | 0.00 | 84 | 997.2 |
| 20260505031908 | 55 | 339 | 0.9 | 2.6 | 0.00 | 0.00 | 0.00 | 84 | 997.1 |
| 20260505031402 | 55 | 284 | 0.9 | 4.3 | 0.00 | 0.00 | 0.00 | 84 | 997.1 |
| 20260505030855 | 55 | 347 | 0.9 | 4.3 | 0.00 | 0.00 | 0.00 | 84 | 997.2 |
| 20260505030350 | 55 | 258 | 0.9 | 4.3 | 0.00 | 0.00 | 0.00 | 84 | 997.1 |
| 20260505025844 | 55 | 342 | 1.7 | 7.8 | 0.00 | 0.00 | 0.00 | 83 | 997.2 |
| 20260505025338 | 55 | 331 | 1.7 | 7.8 | 0.00 | 0.00 | 0.00 | 83 | 997.1 |
| 20260505024832 | 55 | 347 | 0.9 | 3.5 | 0.00 | 0.00 | 0.00 | 83 | 997.1 |
| 20260505024326 | 55 | 329 | 0.9 | 3.5 | 0.00 | 0.00 | 0.00 | 82 | 997.2 |
| 20260505023821 | 56 | 333 | 0.0 | 2.6 | 0.00 | 0.00 | 0.00 | 82 | 997.2 |
| 20260505023314 | 56 | 275 | 0.9 | 2.6 | 0.00 | 0.00 | 0.00 | 81 | 997.2 |
| 20260505022808 | 56 | 316 | 0.9 | 3.5 | 0.00 | 0.00 | 0.00 | 81 | 997.3 |
| 20260505022301 | 56 | 339 | 0.9 | 3.5 | 0.00 | 0.00 | 0.00 | 80 | 997.2 |
| 20260505021756 | 56 | 270 | 0.9 | 4.3 | 0.00 | 0.00 | 0.00 | 79 | 997.2 |
| 20260505021250 | 56 | 264 | 0.9 | 5.2 | 0.00 | 0.00 | 0.00 | 79 | 997.1 |
| 20260505020745 | 56 | 331 | 0.9 | 5.2 | 0.00 | 0.00 | 0.00 | 78 | 997.1 |
| 20260505020238 | 56 | 331 | 0.9 | 3.5 | 0.00 | 0.00 | 0.00 | 78 | 997.1 |
| 20260505015732 | 56 | 355 | 0.9 | 2.6 | 0.00 | 0.00 | 0.00 | 78 | 997.2 |
| 20260505015225 | 56 | 347 | 0.9 | 3.5 | 0.00 | 0.00 | 0.00 | 77 | 997.3 |
| 20260505014722 | 56 | 343 | 0.9 | 3.5 | 0.00 | 0.00 | 0.00 | 76 | 997.3 |
| 20260505014214 | 56 | 300 | 0.9 | 5.2 | 0.00 | 0.00 | 0.00 | 75 | 997.4 |
| 20260505013708 | 56 | 286 | 2.6 | 8.7 | 0.00 | 0.00 | 0.00 | 75 | 997.6 |
| 20260505013201 | 56 | 0 | 2.6 | 8.7 | 0.00 | 0.00 | 0.00 | 76 | 997.6 |
| 20260505012150 | 57 | 259 | 0.9 | 6.1 | 0.00 | 0.00 | 0.00 | 80 | 997.5 |
| 20260505011644 | 57 | 259 | 0.9 | 3.5 | 0.00 | 0.00 | 0.00 | 82 | 997.4 |
| 20260505011138 | 57 | 301 | 0.9 | 2.6 | 0.00 | 0.00 | 0.00 | 82 | 997.4 |
| 20260505010638 | 57 | 252 | 1.7 | 6.1 | 0.00 | 0.00 | 0.00 | 81 | 997.5 |
| 20260505010136 | 57 | 208 | 1.7 | 6.1 | 0.00 | 0.00 | 0.00 | 81 | 997.6 |
| 20260505005635 | 57 | 212 | 0.9 | 5.2 | 0.00 | 0.00 | 0.00 | 81 | 997.6 |
| 20260505005133 | 57 | 210 | 1.7 | 6.1 | 0.00 | 0.00 | 0.00 | 81 | 997.6 |
| 20260505004633 | 57 | 310 | 1.7 | 6.1 | 0.00 | 0.00 | 0.00 | 81 | 997.6 |
| 20260505004132 | 57 | 199 | 1.7 | 6.1 | 0.00 | 0.00 | 0.00 | 81 | 997.5 |
| 20260505003632 | 58 | 227 | 1.7 | 6.1 | 0.00 | 0.00 | 0.00 | 80 | 997.7 |
| 20260505003130 | 58 | 273 | 1.7 | 6.1 | 0.00 | 0.00 | 0.00 | 80 | 997.7 |
| 20260505002629 | 58 | 263 | 1.7 | 6.1 | 0.00 | 0.00 | 0.00 | 80 | 997.8 |
| 20260505001128 | 58 | 279 | 0.9 | 3.5 | 0.00 | 0.00 | 0.00 | 80 | 997.7 |
| 20260505000628 | 58 | 242 | 0.9 | 2.6 | 0.00 | 0.00 | 0.00 | 80 | 997.7 |
| 20260505000126 | 58 | 243 | 0.9 | 3.5 | 0.00 | 0.00 | 0.00 | 79 | 997.7 |
| 20260504235626 | 58 | 238 | 1.7 | 4.3 | 0.00 | 0.00 | 0.00 | 79 | 997.7 |
| 20260504235126 | 58 | 213 | 1.7 | 5.2 | 0.00 | 0.00 | 0.00 | 79 | 997.7 |
| 20260504234626 | 58 | 296 | 1.7 | 5.2 | 0.00 | 0.00 | 0.00 | 80 | 997.6 |
| 20260504234126 | 58 | 208 | 1.7 | 4.3 | 0.00 | 0.00 | 0.00 | 80 | 997.7 |
| 20260504233621 | 58 | 205 | 2.6 | 7.0 | 0.00 | 0.00 | 0.00 | 79 | 997.7 |
| 20260504233121 | 58 | 267 | 2.6 | 7.0 | 0.00 | 0.00 | 0.00 | 79 | 997.6 |
| 20260504231121 | 59 | 202 | 1.7 | 7.0 | 0.00 | 0.00 | 0.00 | 80 | 997.6 |
| 20260504230620 | 59 | 273 | 2.6 | 7.0 | 0.00 | 0.00 | 0.00 | 80 | 997.6 |
| 20260504230120 | 59 | 226 | 2.6 | 7.0 | 0.00 | 0.00 | 0.00 | 79 | 997.6 |
| 20260504225621 | 59 | 269 | 2.6 | 7.0 | 0.00 | 0.00 | 0.00 | 79 | 997.5 |
| 20260504225121 | 59 | 250 | 2.6 | 7.0 | 0.00 | 0.00 | 0.00 | 78 | 997.5 |
| 20260504224620 | 59 | 217 | 2.6 | 5.2 | 0.00 | 0.00 | 0.00 | 78 | 997.6 |
| 20260504224121 | 60 | 197 | 1.7 | 5.2 | 0.00 | 0.00 | 0.00 | 77 | 997.6 |
| 20260504223120 | 60 | 230 | 2.6 | 7.0 | 0.00 | 0.00 | 0.00 | 76 | 997.8 |
| 20260504222622 | 60 | 197 | 2.6 | 6.1 | 0.00 | 0.00 | 0.00 | 75 | 997.7 |
| 20260504222120 | 61 | 194 | 2.6 | 6.1 | 0.00 | 0.00 | 0.00 | 74 | 997.7 |
| 20260504221622 | 62 | 202 | 1.7 | 3.5 | 0.00 | 0.00 | 0.00 | 73 | 997.8 |
| 20260504221115 | 62 | 246 | 2.6 | 5.2 | 0.00 | 0.00 | 0.00 | 73 | 997.9 |
| 20260504220610 | 63 | 254 | 2.6 | 5.2 | 0.00 | 0.00 | 0.00 | 73 | 997.9 |
| 20260504220104 | 63 | 202 | 2.6 | 5.2 | 0.00 | 0.00 | 0.00 | 73 | 997.8 |
| 20260504215558 | 63 | 213 | 2.6 | 7.0 | 0.00 | 0.00 | 0.00 | 73 | 997.8 |
| 20260504215058 | 62 | 273 | 2.6 | 7.0 | 0.00 | 0.00 | 0.00 | 74 | 997.9 |
| 20260504214557 | 62 | 215 | 2.6 | 6.1 | 0.00 | 0.00 | 0.00 | 76 | 997.9 |
| 20260504214058 | 61 | 261 | 3.5 | 7.0 | 0.00 | 0.00 | 0.00 | 75 | 997.8 |
| 20260504213555 | 61 | 247 | 3.5 | 7.8 | 0.00 | 0.00 | 0.00 | 74 | 997.9 |
| 20260504213054 | 61 | 225 | 2.6 | 7.8 | 0.00 | 0.00 | 0.00 | 73 | 997.8 |
| 20260504212556 | 61 | 276 | 2.6 | 6.1 | 0.00 | 0.00 | 0.00 | 75 | 997.9 |
| 20260504212054 | 61 | 260 | 2.6 | 6.1 | 0.00 | 0.00 | 0.00 | 75 | 997.9 |
| 20260504211554 | 61 | 232 | 2.6 | 6.1 | 0.00 | 0.00 | 0.00 | 75 | 998.0 |
| 20260504211055 | 61 | 224 | 2.6 | 6.1 | 0.00 | 0.00 | 0.00 | 76 | 997.9 |
| 20260504210051 | 61 | 221 | 2.6 | 7.8 | 0.00 | 0.00 | 0.00 | 75 | 997.8 |
| 20260504205552 | 61 | 227 | 2.6 | 7.0 | 0.00 | 0.00 | 0.00 | 75 | 997.9 |
| 20260504205051 | 61 | 207 | 2.6 | 7.0 | 0.00 | 0.00 | 0.00 | 74 | 998.0 |
| 20260504204051 | 61 | 229 | 3.5 | 6.1 | 0.00 | 0.00 | 0.00 | 74 | 998.1 |
| 20260504203552 | 60 | 215 | 3.5 | 7.0 | 0.00 | 0.00 | 0.00 | 76 | 998.1 |
| 20260504203051 | 60 | 237 | 3.5 | 7.0 | 0.00 | 0.00 | 0.00 | 75 | 998.0 |
| 20260504202552 | 61 | 210 | 3.5 | 7.0 | 0.00 | 0.00 | 0.00 | 74 | 998.0 |
| 20260504202046 | 61 | 222 | 3.5 | 7.0 | 0.00 | 0.00 | 0.00 | 72 | 997.9 |
| 20260504201548 | 62 | 284 | 2.6 | 7.0 | 0.00 | 0.00 | 0.00 | 72 | 997.9 |
| 20260504201048 | 62 | 213 | 3.5 | 7.0 | 0.00 | 0.00 | 0.00 | 71 | 997.8 |
| 20260504200547 | 62 | 181 | 2.6 | 7.8 | 0.00 | 0.00 | 0.00 | 70 | 997.8 |
| 20260504200047 | 62 | 268 | 2.6 | 9.6 | 0.00 | 0.00 | 0.00 | 71 | 997.9 |
| 20260504195549 | 62 | 249 | 2.6 | 9.6 | 0.00 | 0.00 | 0.00 | 69 | 998.0 |
| 20260504195046 | 62 | 238 | 2.6 | 6.1 | 0.00 | 0.00 | 0.00 | 69 | 998.0 |
| 20260504194547 | 62 | 210 | 3.5 | 6.1 | 0.00 | 0.00 | 0.00 | 70 | 998.1 |
| 20260504194048 | 62 | 236 | 3.5 | 7.0 | 0.00 | 0.00 | 0.00 | 70 | 998.1 |
| 20260504193042 | 62 | 204 | 3.5 | 8.7 | 0.00 | 0.00 | 0.00 | 66 | 998.0 |
| 20260504192542 | 62 | 258 | 3.5 | 7.8 | 0.00 | 0.00 | 0.00 | 65 | 997.9 |
| 20260504192042 | 63 | 264 | 3.5 | 7.8 | 0.00 | 0.00 | 0.00 | 67 | 998.0 |
| 20260504191540 | 63 | 244 | 3.5 | 7.0 | 0.00 | 0.00 | 0.00 | 67 | 998.0 |
| 20260504191040 | 63 | 182 | 2.6 | 7.0 | 0.00 | 0.00 | 0.00 | 66 | 998.1 |
| 20260504190540 | 63 | 242 | 3.5 | 8.7 | 0.00 | 0.00 | 0.00 | 66 | 998.1 |
| 20260504190039 | 63 | 230 | 3.5 | 8.7 | 0.00 | 0.00 | 0.00 | 65 | 998.2 |
| 20260504185537 | 63 | 264 | 3.5 | 8.7 | 0.00 | 0.00 | 0.00 | 67 | 998.1 |
| 20260504185035 | 63 | 260 | 3.5 | 8.7 | 0.00 | 0.00 | 0.00 | 69 | 998.1 |
| 20260504184533 | 62 | 271 | 3.5 | 7.0 | 0.00 | 0.00 | 0.00 | 70 | 998.1 |
| 20260504184032 | 62 | 277 | 2.6 | 6.1 | 0.00 | 0.00 | 0.00 | 68 | 998.1 |
| 20260504183031 | 62 | 265 | 2.6 | 8.7 | 0.00 | 0.00 | 0.00 | 69 | 998.1 |
| 20260504182530 | 62 | 198 | 3.5 | 7.8 | 0.00 | 0.00 | 0.00 | 69 | 998.1 |
| 20260504182030 | 62 | 242 | 3.5 | 7.8 | 0.00 | 0.00 | 0.00 | 71 | 998.0 |
| 20260504181530 | 62 | 273 | 3.5 | 7.0 | 0.00 | 0.00 | 0.00 | 70 | 998.0 |
| 20260504181029 | 62 | 240 | 2.6 | 7.0 | 0.00 | 0.00 | 0.00 | 71 | 997.9 |
| 20260504180526 | 62 | 196 | 2.6 | 5.2 | 0.00 | 0.00 | 0.00 | 69 | 997.9 |
| 20260504180028 | 62 | 223 | 2.6 | 5.2 | 0.00 | 0.00 | 0.00 | 69 | 997.9 |
| 20260504175524 | 62 | 248 | 2.6 | 6.1 | 0.00 | 0.00 | 0.00 | 70 | 998.0 |
| 20260504175024 | 62 | 236 | 2.6 | 6.1 | 0.00 | 0.00 | 0.00 | 70 | 998.0 |
| 20260504174525 | 62 | 292 | 1.7 | 5.2 | 0.00 | 0.00 | 0.00 | 71 | 997.9 |
| 20260504174025 | 62 | 304 | 2.6 | 5.2 | 0.00 | 0.00 | 0.00 | 73 | 997.8 |
| 20260504173525 | 61 | 207 | 2.6 | 6.1 | 0.00 | 0.00 | 0.00 | 72 | 997.8 |
| 20260504173023 | 61 | 215 | 3.5 | 7.0 | 0.00 | 0.00 | 0.00 | 74 | 997.8 |
| 20260504172522 | 61 | 225 | 3.5 | 7.0 | 0.00 | 0.00 | 0.00 | 74 | 997.7 |
| 20260504172022 | 60 | 184 | 2.6 | 5.2 | 0.00 | 0.00 | 0.00 | 76 | 997.8 |
| 20260504170521 | 59 | 168 | 2.6 | 6.1 | 0.00 | 0.00 | 0.00 | 79 | 997.8 |
| 20260504160427 | 56 | 270 | 0.9 | 2.6 | 0.00 | 0.00 | 0.00 | 86 | 997.5 |